カタログに戻る

YUNYAO-1 36

運用中気象SSO
NORAD 61904·PAYLOAD·🇨🇳 China
この衛星名は、まだ公式ソースで確認されていません。

打ち上げ Nov 11, 2024 から Jiuquan Satellite Launch Center

Loading…

次のパス (今後24時間)

TLE

最新Source: Space-Track

元期: Sep 14, 2026, 15:24 UTC

1 61904U 24205L   26257.64225461  .00005064  00000-0  30764-3 0  9993
2 61904  97.4052 324.9757 0067323  59.5853 301.2006 15.09005503101688

AllMySatでYUNYAO-1 36をリアルタイム追跡

Download on the App Store